Location: Bratislava
(48.1500°N, 17.1167°E)
Time: 14:25:39
(UTC+01:00)

ISS - Visible Passes

Search period start: 18 March 2019 00:00
Search period end: 28 March 2019 00:00
Orbit: 406 x 411 km, 51.6° (Epoch: 18 March)

Date Brightness Start Highest point End Pass type
(mag) Time Alt. Az. Time Alt. Az. Time Alt. Az.
21 Mar -1.6 18:54:55 10° SSE 18:55:47 11° SE 18:56:04 11° SE visible
21 Mar -1.0 20:28:31 10° SW 20:28:53 12° SW 20:28:53 12° SW visible
22 Mar -3.2 19:37:44 10° SSW 19:40:44 36° SSE 19:40:44 36° SSE visible
23 Mar -2.4 18:47:14 10° SSW 18:49:52 22° SE 18:52:23 11° E visible
23 Mar -2.7 20:22:52 10° WSW 20:25:09 41° WSW 20:25:09 41° WSW visible
24 Mar -3.9 19:31:49 10° WSW 19:35:05 71° SSE 19:36:36 29° ENE visible
24 Mar -0.8 21:08:36 10° W 21:09:21 16° WNW 21:09:21 16° WNW visible
25 Mar -3.4 18:40:54 10° SW 18:44:04 45° SSE 18:47:15 10° ENE visible
25 Mar -3.2 20:17:23 10° W 20:20:37 53° NNW 20:20:38 53° NNW visible
26 Mar -3.6 19:26:10 10° WSW 19:29:28 69° NNW 19:31:48 18° ENE visible
26 Mar -1.3 21:03:08 10° WNW 21:04:32 22° WNW 21:04:32 22° WNW visible
27 Mar -3.0 20:11:55 10° WNW 20:15:06 44° N 20:15:36 40° NNE visible
